This demonstration page uses our WeatherBlox Daily Observations layout. Learn more.

40.92945, -100.16068

Hourly Observations for January 4, 2018

Temp ( °F °C ) Dew Point ( °F °C ) Humidity (%) Winds ( mph kmh ) Pressure ( in mb ) Visibility ( mi km ) Precip ( " mm )
12:15 am 00:15 Partly Cloudy 17 -8.2 13 -10.3 85 85 Calm 30.42 1030 10 16.0934 0 0
12:35 am 00:35 Partly Cloudy 18 -7.8 14 -10.1 84 84 Calm 30.42 1030 10 16.0934 0 0
12:55 am 00:55 Clear 16 -9 12 -11.1 85 85 Calm 30.45 1031 10 16.0934 0 0
1:15 am 01:15 Clear 14 -9.9 11 -11.8 86 86 Calm 30.45 1031 10 16.0934 0 0
1:35 am 01:35 Clear 14 -9.8 11 -11.4 88 88 Calm 30.45 1031 10 16.0934 0 0
1:55 am 01:55 Clear 13 -10.8 10 -12.4 88 88 ENE 5 7 30.45 1031 10 16.0934 0 0
2:15 am 02:15 Clear 15 -9.7 12 -11.2 89 89 S 3 6 30.45 1031 10 16.0934 0 0
2:35 am 02:35 Partly Cloudy 14 -9.9 11 -11.6 88 88 SSW 3 6 30.45 1031 10 16.0934 0 0
2:55 am 02:55 Partly Cloudy 15 -9.2 12 -10.9 88 88 Calm 30.45 1031 10 16.0934 0 0
3:15 am 03:15 Clear 14 -9.8 11 -11.6 87 87 NE 3 6 30.45 1031 10 16.0934 0 0
3:35 am 03:35 Mostly Cloudy 15 -9.4 12 -11.1 88 88 ENE 6 9 30.45 1031 10 16.0934 0 0
3:55 am 03:55 Cloudy 16 -9.1 13 -10.8 88 88 ENE 5 7 30.45 1031 10 16.0934 0 0
4:15 am 04:15 Cloudy 16 -9 13 -10.6 88 88 E 3 6 30.45 1031 10 16.0934 0 0
4:35 am 04:35 Cloudy 17 -8.2 14 -10 87 87 Calm 30.39 1029 10 16.0934 0 0
4:55 am 04:55 Mostly Cloudy 17 -8.1 14 -10 86 86 Calm 30.39 1029 10 16.0934 0 0
5:15 am 05:15 Partly Cloudy 17 -8.6 13 -10.3 88 88 Calm 30.39 1029 10 16.0934 0 0
5:35 am 05:35 Clear 15 -9.5 12 -11 89 89 NE 3 6 30.42 1030 10 16.0934 0 0
5:55 am 05:55 Clear 12 -10.9 10 -12.4 89 89 E 3 6 30.42 1030 10 16.0934 0 0
6:15 am 06:15 Clear 13 -10.7 10 -12.2 89 89 SE 3 6 30.42 1030 10 16.0934 0 0
6:35 am 06:35 Clear 12 -11.1 9 -12.9 87 87 Calm 30.42 1030 10 16.0934 0 0
6:55 am 06:55 Clear 13 -10.7 10 -12.2 89 89 Calm 30.42 1030 10 16.0934 0 0
7:15 am 07:15 Clear with Mist and Fog 12 -11 9 -12.8 87 87 Calm 30.42 1030 4 6.43736 0 0
7:35 am 07:35 Mostly Cloudy with Freezing Fog 11 -11.7 8 -13.4 87 87 Calm 30.42 1030 0.25 0.402335 0 0
7:55 am 07:55 Clear 10 -12.5 6 -14.4 86 86 Calm 30.45 1031 7 11.26538 0 0
8:15 am 08:15 Sunny 10 -12.2 7 -14 87 87 Calm 30.45 1031 7 11.26538 0 0
8:35 am 08:35 Sunny 8 -13.6 4 -15.6 85 85 W 3 6 30.42 1030 10 16.0934 0 0
8:55 am 08:55 Sunny with Mist and Fog 9 -12.6 6 -14.6 85 85 NNW 3 6 30.45 1031 5 8.0467 0 0
9:15 am 09:15 Sunny 13 -10.3 11 -11.8 89 89 W 5 7 30.42 1030 10 16.0934 0 0
9:35 am 09:35 Sunny 20 -6.8 18 -8 91 91 WSW 7 11 30.39 1029 10 16.0934 0 0
9:55 am 09:55 Sunny 24 -4.5 22 -5.8 91 91 SW 10 17 30.36 1028 10 16.0934 0 0
10:15 am 10:15 Sunny 28 -2.2 19 -7.3 68 68 SSW 15 24 30.33 1027 10 16.0934 0 0
10:35 am 10:35 Sunny 29 -1.7 20 -6.8 69 69 WNW 12 19 30.33 1027 10 16.0934 0 0
10:55 am 10:55 Sunny 29 -1.5 20 -6.8 68 68 WSW 7 11 30.33 1027 10 16.0934 0 0
11:15 am 11:15 Sunny 30 -1 20 -6.5 67 67 WSW 7 11 30.33 1027 10 16.0934 0 0
11:35 am 11:35 Sunny 31 -0.7 21 -6.1 67 67 WNW 6 9 30.33 1027 10 16.0934 0 0
11:55 am 11:55 Sunny 31 -0.4 22 -5.7 68 68 W 6 9 30.27 1025 10 16.0934 0 0
12:15 pm 12:15 Sunny 32 0 22 -5.7 66 66 W 7 11 30.27 1025 10 16.0934 0 0
12:35 pm 12:35 Sunny 33 0.5 22 -5.3 65 65 W 8 13 30.27 1025 10 16.0934 0 0
12:55 pm 12:55 Sunny 34 1 23 -5 65 65 W 5 7 30.24 1024 10 16.0934 0 0
1:15 pm 13:15 Sunny 34 1 24 -4.5 67 67 Calm 30.24 1024 10 16.0934 0 0
1:35 pm 13:35 Sunny 34 1.3 24 -4.3 67 67 W 5 7 30.24 1024 10 16.0934 0 0
1:55 pm 13:55 Sunny 35 1.7 25 -4 66 66 W 6 9 30.24 1024 10 16.0934 0 0
2:15 pm 14:15 Sunny 36 2.2 25 -3.9 64 64 W 6 9 30.21 1023 10 16.0934 0 0
2:35 pm 14:35 Sunny 36 2.1 25 -3.7 66 66 WNW 3 6 30.21 1023 10 16.0934 0 0
2:55 pm 14:55 Sunny 36 2.2 26 -3.4 67 67 WNW 7 11 30.18 1022 10 16.0934 0 0
3:15 pm 15:15 Sunny 36 2.2 26 -3.3 67 67 WNW 7 11 30.18 1022 10 16.0934 0 0
3:35 pm 15:35 Sunny 36 2.1 26 -3.2 68 68 WNW 6 9 30.18 1022 10 16.0934 0 0
3:55 pm 15:55 Sunny 36 2.2 27 -3 69 69 NNW 6 9 30.21 1023 10 16.0934 0 0
4:15 pm 16:15 Sunny 35 1.8 26 -3.2 70 70 NW 6 9 30.24 1024 10 16.0934 0 0
4:35 pm 16:35 Sunny 35 1.7 26 -3.5 69 69 WNW 5 7 30.24 1024 10 16.0934 0 0
4:55 pm 16:55 Sunny 34 1.1 26 -3.2 73 73 WNW 3 6 30.24 1024 10 16.0934 0 0
5:15 pm 17:15 Sunny 33 0.6 26 -3.5 74 74 W 3 6 30.24 1024 10 16.0934 0 0
5:35 pm 17:35 Clear 31 -0.8 25 -4.1 79 79 W 6 9 30.24 1024 10 16.0934 0 0
5:55 pm 17:55 Clear 29 -1.5 24 -4.3 81 81 WNW 7 11 30.27 1025 10 16.0934 0 0
6:15 pm 18:15 Clear 29 -1.9 23 -4.8 81 81 WNW 7 11 30.27 1025 10 16.0934 0 0
6:35 pm 18:35 Clear 29 -1.7 24 -4.5 81 81 NW 6 9 30.27 1025 10 16.0934 0 0
6:55 pm 18:55 Clear 28 -2.4 22 -5.5 80 80 NW 7 11 30.27 1025 10 16.0934 0 0
7:15 pm 19:15 Clear 26 -3.1 22 -5.6 83 83 NW 8 13 30.3 1026 10 16.0934 0 0
7:35 pm 19:35 Clear 25 -3.9 20 -6.4 83 83 NW 7 11 30.33 1027 10 16.0934 0 0
7:55 pm 19:55 Clear 24 -4.2 21 -6.2 86 86 NW 6 9 30.33 1027 10 16.0934 0 0
8:15 pm 20:15 Clear 23 -5.1 20 -6.7 89 89 WNW 6 9 30.33 1027 10 16.0934 0 0
8:35 pm 20:35 Clear 20 -6.7 17 -8.3 89 89 Calm 30.36 1028 10 16.0934 0 0
8:55 pm 20:55 Clear 21 -5.9 19 -7.3 90 90 W 5 7 30.33 1027 10 16.0934 0 0
9:15 pm 21:15 Clear 19 -7 17 -8.5 89 89 W 8 13 30.36 1028 10 16.0934 0 0
9:35 pm 21:35 Clear 21 -6.3 18 -7.6 91 91 WNW 7 11 30.33 1027 10 16.0934 0 0
9:55 pm 21:55 Clear 19 -7 17 -8.4 90 90 WNW 6 9 30.36 1028 10 16.0934 0 0
10:15 pm 22:15 Clear 18 -7.8 15 -9.5 88 88 NW 6 9 30.36 1028 10 16.0934 0 0
10:35 pm 22:35 Clear 19 -7.3 17 -8.6 91 91 NW 7 11 30.36 1028 10 16.0934 0 0
10:55 pm 22:55 Clear 17 -8.1 15 -9.4 90 90 W 9 15 30.36 1028 7 11.26538 0 0
11:15 pm 23:15 Clear 18 -7.8 16 -9.1 91 91 WNW 3 6 30.36 1028 10 16.0934 0 0
11:35 pm 23:35 Clear 17 -8.5 14 -9.8 90 90 W 5 7 30.39 1029 10 16.0934 0 0
11:55 pm 23:55 Clear 17 -8.5 14 -9.8 90 90 W 7 11 30.39 1029 10 16.0934 0 0

Powered by AerisWeather